This is the latest recevied weather packets stored in our database for station/object KL4TQ. If no packets are shown the sender has not sent any weather packets the latest 10 day(s).
| Time | Temp. | Humidity | Pressure | Rain* | Wind** | Luminosity | Snow |
|---|---|---|---|---|---|---|---|
| 1778050869 | 2.78° C | 96% | 857 hPa | 1.02 mm | - | 0 W/m² | - |
| 1778050569 | 2.78° C | 96% | 857 hPa | 1.52 mm | - | 0 W/m² | - |
| 1778050268 | 3.33° C | 96% | 857 hPa | 0.25 mm | - | 1 W/m² | - |
| 1778049969 | 3.33° C | 95% | 857 hPa | 0.25 mm | - | 1 W/m² | - |
| 1778049669 | 3.33° C | 94% | 857 hPa | 0 mm | - | 2 W/m² | - |
| 1778049368 | 3.33° C | 94% | 857 hPa | 0.25 mm | - | 2 W/m² | - |
| 1778049068 | 3.33° C | 93% | 857 hPa | 1.02 mm | - | 2 W/m² | - |
| 1778048769 | 3.33° C | 93% | 857 hPa | 0.25 mm | - | 2 W/m² | - |
| 1778048469 | 3.33° C | 93% | 857 hPa | 0 mm | - | 3 W/m² | - |
| 1778048168 | 3.33° C | 93% | 857 hPa | 0 mm | - | 5 W/m² | - |
| 1778047869 | 3.33° C | 93% | 857 hPa | 0 mm | - | 6 W/m² | - |
| 1778047569 | 3.33° C | 92% | 857 hPa | 0 mm | - | 6 W/m² | - |
| 1778047268 | 3.33° C | 92% | 857 hPa | 0 mm | - | 9 W/m² | - |
| 1778046969 | 3.33° C | 91% | 857 hPa | 0 mm | - | 12 W/m² | - |
| 1778046668 | 3.89° C | 91% | 857 hPa | 0 mm | - | 16 W/m² | - |
| 1778046368 | 3.89° C | 90% | 857 hPa | 0 mm | - | 19 W/m² | - |
| 1778046068 | 3.89° C | 90% | 857 hPa | 0 mm | - | 23 W/m² | - |
| 1778045768 | 3.89° C | 90% | 857 hPa | 0 mm | - | 27 W/m² | - |
| 1778045468 | 3.89° C | 89% | 857 hPa | 0 mm | - | 28 W/m² | - |
| 1778045169 | 3.89° C | 89% | 857 hPa | 0 mm | - | 29 W/m² | - |
| 1778044868 | 3.89° C | 89% | 857 hPa | 0 mm | - | 24 W/m² | - |
| 1778044568 | 3.89° C | 89% | 857 hPa | 0 mm | - | 31 W/m² | - |
| 1778044270 | 3.89° C | 88% | 857 hPa | 0 mm | - | 36 W/m² | - |
| 1778043969 | 3.89° C | 88% | 857 hPa | 0 mm | - | 35 W/m² | - |
| 1778043668 | 3.89° C | 88% | 857 hPa | 0 mm | - | 37 W/m² | - |
* Rain latest hour (hover to see other rain measurements)
** Current wind speed in m/s (hover to see current wind gust speed)